Last server records
Pro Nub

Map info

cg_oldtexas
cg_oldtexas ( Xtreme-Jumps) 10.01.2008
Xtreme-Jumps record shooting-star - 05:50.82

KZ-Rush record akkuratist - 06:09.75

Mapper  Malvin

Pro-record round - 07:38.45

Nub-record GoDfreee - 06:43.04 (147 cp / 14 gc)

Difficulty Average

Length Long

Download map cg_oldtexas (3,22 MB)
Installation instructions

Map Installation Guide

  1. Download map archive cg_oldtexas.zip
  2. Unzip the archive in any convenient folder
  3. Open cstrike folder, which is located in the place of Counter-Strike installation. In case of Steam version the path looks like Steam\steamapps\common\Half-Life
  4. Copy all files from the folder, where you unzipped the archive, to cstrike folder according to the following table (if your system asks about replacing files, choose Copy and Replace):
maps/cg_oldtexas.bsp>>maps/cg_oldtexas.bsp
maps/cg_oldtexas.txt>>cg_oldtexas.txt
models/3dm_plant02.mdl>>models/3dm_plant02.mdl
sound/ambience/waterrun.wav>>sound/ambience/waterrun.wav
sprites/watersmoke.spr>>sprites/watersmoke.spr

Community records

# Player Time Difference Date  
1 akkuratist 06:09.75   30.08.20
2 RoN` 07:02.88 -00:53.13 13.02.18
# Player Time Date Weapon
1 round 07:38.45 14.03.18
2 snegg 12:09.14 17.01.19
3 Penguin 14:32.29 28.08.18
4 Andro 15:06.33 01.06.18
5 SlasHeR 15:44.96 04.07.20
6 zmokiE 17:12.13 03.02.18
7 Klusia 19:37.21 24.09.17
8 jigsaw 21:44.45 19.01.19
9 trololo 21:54.42 24.04.20
10 Player 23:54.72 23.02.20
# Player Time Date Weapon CP GC
1 GoDfreee 06:43.04 11.03.18 147 14
2 Neiro 06:46.90 01.06.17 162 7
3 RoN` 06:48.72 11.03.18 196 9
4 trc 07:02.28 23.02.20 185 20
5 SlasHeR 07:03.35 04.07.20 173 12
6 CamelCloud 07:23.82 14.03.18 181 24
7 rach 07:30.82 03.02.18 142 26
8 HaMMa 07:36.91 23.02.20 162 18
9 xenge 07:42.96 11.03.18 215 33
10 rze 07:44.52 17.01.19 211 28
11 erdik 07:45.60 17.01.19 186 28
12 Sly 07:48.25 04.07.20 211 38
13 hfour 07:54.39 28.08.18 128 26
14 Penguin 08:00.10 17.01.19 111 20
15 K 08:08.64 01.06.17 187 16
16 Madcat 08:23.61 11.04.20 249 23
17 Ambush^ 08:26.16 03.02.18 185 54
18 Deadpool 08:36.35 24.09.17 194 50
19 Roseanne_Park. 08:45.47 23.02.20 179 31
20 Clizma 08:50.39 01.12.18 218 34
21 李富清团长 09:03.39 26.08.17 185 34
22 Sixel^ 09:05.77 04.07.20 229 45
23 snegg 09:10.02 28.08.18 195 49
24 Stanley 09:22.49 01.12.18 248 50
25 kIT 09:25.62 21.09.16 179 70
26 360 09:28.68 13.10.17 170 48
27 blueming 09:43.20 04.07.20 156 46
28 ddevil 09:52.89 15.01.19 268 55
29 taipan 10:14.24 03.02.18 251 53
30 Master_Me4a 10:20.74 01.12.18 268 57
31 Masljonok 10:21.76 11.08.18 219 72
32 Shockwave 10:28.29 06.05.19 305 59
33 Nyctibius_griseus 10:40.84 17.04.19 236 75
34 as 10:44.05 03.02.18 227 66
35 reatzh 10:47.42 24.04.20 87 36
36 blackfury 10:53.76 13.05.18 237 81
37 Xednay 11:14.66 23.12.16 229 77
38 jigsaw 11:14.84 13.10.17 164 82
39 [Æ]_rsd 11:16.12 28.08.18 226 84
40 exploze 11:19.53 24.04.20 228 78
41 sunman 11:20.36 09.03.17 280 94
42 famch 11:26.22 14.03.18 199 97
43 Al4nayaMrazb 11:32.01 13.01.20 241 99
44 yohohox 11:35.46 01.06.17 223 112
45 nightcore 11:47.32 04.07.20 244 81
46 WERANCE 11:49.66 04.07.20 353 97
47 23savage 11:51.11 02.01.17 231 83
48 bikk 11:54.04 24.09.17 232 128
49 ONELEG 11:54.22 01.12.18 234 89
50 fucktehworld 11:56.73 12.02.17 212 113
51 ja_polnij_0 11:58.35 25.03.19 230 112
52 termik 12:02.99 23.02.20 133 51
53 Tonton 12:06.90 24.04.20 233 142
54 (;-_-)ᴇᴍᴍᴍ 12:10.42 24.05.17 183 113
55 dogeninja_dude42 12:11.60 01.12.18 204 114
56 MaeStro6773 12:15.45 11.04.20 228 51
57 inj3ct0r. 12:20.97 03.02.18 289 151
58 Player 12:28.04 04.07.20 236 103
59 virys007_miqhty 12:28.20 29.01.19 298 76
60 megaman 12:31.04 19.01.19 245 125
61 . 12:31.75 15.01.19 244 68
62 rang00 12:36.56 02.11.17 317 101
63 Player 12:37.02 17.01.19 171 129
64 DRUGAN 12:37.81 11.04.20 325 105
65 Marijuana 12:47.19 23.01.20 267 130
66 toyzz 12:49.69 26.08.17 279 113
67 flawlessness 12:54.80 24.09.17 260 126
68 ink 13:07.72 11.04.20 195 108
69 Nutella 13:13.82 19.12.18 350 103
70 lavash 13:21.30 28.08.18 266 117
71 shrk.^ 13:27.31 14.03.18 157 54
72 Player 13:28.63 14.03.18 168 95
73 sook 13:36.86 01.02.17 262 108
74 edZika 13:40.27 01.06.17 279 130
75 rspkt 13:43.39 24.04.20 171 85
76 voicezero 13:57.02 11.08.18 303 136
77 iNsprate #Strafeace 14:01.15 01.12.18 185 102
78 sliuM 14:09.43 03.02.20 341 161
79 zmokiE 14:18.95 03.02.18 259 153
80 Yago 14:20.17 01.12.18 130 144
81 nerozqx 14:37.74 14.03.18 235 159
82 Alf 14:53.13 01.12.18 425 168
83 cyxue_nonku^huggies 14:57.90 24.04.20 226 137
84 estrom 15:17.75 17.01.19 303 167
85 Taewii 15:29.42 03.02.18 219 171
86 123 15:46.71 28.08.18 342 173
87 .mQ 15:48.59 03.02.18 180 176
88 psychoren 15:53.12 24.04.20 133 161
89 Mist 16:10.68 11.03.18 248 170
90 major_dagA 16:22.28 23.02.20 209 128
91 ~HR~7fAta 16:25.34 19.12.18 234 150
92 Leprikon_^ 16:25.88 01.12.18 283 144
93 .ExpreSs_StresS. 16:32.25 01.06.17 288 238
94 tommy 16:36.10 17.01.19 210 206
95 EnTaro 16:47.28 03.02.18 299 224
96 didigy_kz.patience 17:24.58 28.08.18 175 178
97 Gzp 17:43.36 14.09.17 273 183
98 dimaRIC 18:01.45 19.12.18 242 152
99 tolyatti 19:09.36 12.10.16 403 184
100 Darling 19:20.76 28.08.18 323 216
101 yhnwsx. 19:26.41 24.04.20 210 172
102 mvxtip 19:30.98 03.04.19 438 277
103 sp00nner 19:33.87 03.02.18 252 324
104 Sparrow 19:44.35 01.12.18 204 138
105 Mazinja 20:29.08 14.03.18 252 254
106 Presive 20:52.84 23.02.20 240 249
107 sten_LY 20:53.92 11.03.18 175 300
108 space 21:17.69 11.03.18 210 266
109 ynopoTbIu 21:31.05 28.08.18 347 295
110 IDs^^ 22:34.74 24.12.18 235 343
111 Дно_#_W1nS 26:15.46 03.02.18 419 475
112 abcdefg 26:47.40 23.02.20 364 307
113 otec_odinochka 36:31.67 28.08.18 218 273
114 care_samo_pare 38:35.74 04.07.20 235 624
115 Seth 39:08.38 24.04.20 263 649
116 Spekals 68:48.05 03.02.18 223 1239
# Player Time Date Weapon CP GC
1 sliuM 13:41.00 03.02.20 291 141

Other maps with same difficulty

Other maps from Xtreme-Jumps

Other maps from mapper Malvin